KI5NYZ-13 Weather Reports


Display with metric or nautical units.
time (UTC)temp
F
wind
direction
speed
MPH
gust
MPH
rain 1hr
in
rain 24hr
in
rain mn
in
humidity
%
barometer
mb
20260831095328 71 205 1.0 1.0 0.00 0.33 0.00 61 1012.3
20260831092327 71 204 1.0 1.0 0.00 0.33 0.00 61 1012.1
20260831085326 73 204 1.0 2.0 0.00 0.33 0.00 58 1011.6
20260831082325 74 188 1.0 1.0 0.00 0.33 0.00 56 1011.2
20260831075324 75 187 2.0 3.0 0.00 0.33 0.00 53 1011.0
20260831072323 77 179 3.0 3.0 0.00 0.33 0.00 50 1010.6
20260831065322 77 174 3.0 3.0 0.00 0.33 0.00 49 1010.4
20260831062321 78 178 3.0 3.0 0.00 0.33 0.00 47 1010.3
20260831055321 78 176 2.0 2.0 0.00 0.33 0.00 46 1010.2
20260831052319 81 186 2.0 3.0 0.00 0.33 0.00 42 1009.7
20260831045318 81 183 2.0 2.0 0.00 0.33 0.33 42 1009.5
20260831042317 82 178 2.0 3.0 0.00 0.33 0.33 40 1009.2
20260831035316 83 178 3.0 3.0 0.00 0.33 0.33 40 1009.0
20260831032315 83 172 2.0 2.0 0.00 0.33 0.33 38 1008.7
20260831025314 83 184 0.0 0.0 0.00 0.33 0.33 38 1008.4
20260831022313 85 167 0.0 0.0 0.00 0.33 0.33 35 1007.8
20260831015312 87 168 0.0 0.0 0.00 0.33 0.33 33 1007.1
20260831012311 90 173 1.0 1.0 0.00 0.33 0.33 31 1006.2
20260831005310 94 174 1.0 1.0 0.01 0.33 0.33 27 1005.3
20260831002309 96 176 2.0 2.0 0.02 0.33 0.33 26 1004.9
20260830235309 97 183 1.0 1.0 0.01 0.32 0.32 24 1004.6
20260830232307 97 168 2.0 2.0 0.02 0.33 0.31 24 1004.5
20260830225306 97 178 2.0 4.0 0.02 0.32 0.30 23 1004.6
20260830222306 98 176 1.0 8.0 0.02 0.31 0.28 23 1004.5
20260830215305 98 170 1.0 9.0 0.02 0.33 0.27 24 1004.8
20260830212306 97 181 4.0 8.0 0.03 0.32 0.26 26 1005.5
20260830205306 97 173 2.0 11.0 0.04 0.31 0.24 27 1006.0
20260830202300 96 191 4.0 9.0 0.05 0.32 0.22 27 1006.5
20260830195259 96 198 4.0 8.0 0.05 0.31 0.19 27 1007.0
20260830192259 95 210 4.0 9.0 0.05 0.29 0.16 28 1007.5
20260830185257 94 170 2.0 8.0 0.05 0.28 0.13 29 1007.9
20260830182256 94 164 2.0 9.0 0.03 0.27 0.11 31 1008.4
20260830175255 92 205 4.0 8.0 0.03 0.25 0.08 34 1009.2
20260830172254 90 217 3.0 7.0 0.04 0.25 0.07 37 1009.9
20260830165253 89 189 3.0 8.0 0.02 0.23 0.04 41 1010.5
20260830162252 87 189 3.0 10.0 0.01 0.23 0.02 45 1010.9
20260830155251 85 213 3.0 7.0 0.02 0.24 0.02 48 1011.4
20260830152250 82 209 3.0 7.0 0.01 0.24 0.01 52 1012.0
20260830145249 80 212 3.0 9.0 0.00 0.23 0.00 55 1012.5
20260830142248 76 202 1.0 6.0 0.00 0.23 0.00 60 1013.3
20260830135247 72 181 1.0 3.0 0.00 0.23 0.00 66 1014.1
20260830132246 69 213 0.0 3.0 0.00 0.23 0.00 72 1014.6
20260830125245 66 253 0.0 2.0 0.00 0.23 0.00 77 1014.7
20260830122244 68 200 0.0 2.0 0.00 0.23 0.00 73 1014.1
20260830115243 68 240 0.0 2.0 0.00 0.23 0.00 72 1013.8
20260830112242 67 295 0.0 0.0 0.00 0.23 0.00 71 1013.7
20260830105241 68 226 0.0 2.0 0.00 0.23 0.00 70 1013.4
20260830102240 70 245 1.0 3.0 0.00 0.23 0.00 68 1013.1